����������;��������(kWh)
2016-05-09 00:00;84,5
2016-05-09 00:15;82,15
2016-05-09 00:30;83,3
2016-05-09 00:45;82,6
2016-05-09 01:00;81,55
2016-05-09 01:15;82,3
2016-05-09 01:30;82,95
2016-05-09 01:45;83,9
2016-05-09 02:00;82,8
2016-05-09 02:15;81,8
2016-05-09 02:30;80,7
2016-05-09 02:45;78,35
2016-05-09 03:00;79,45
2016-05-09 03:15;78,15
2016-05-09 03:30;80,85
2016-05-09 03:45;80,1
2016-05-09 04:00;80,95
2016-05-09 04:15;81,55
2016-05-09 04:30;80,4
2016-05-09 04:45;81,3
2016-05-09 05:00;78,7
2016-05-09 05:15;81,35
2016-05-09 05:30;80,7
2016-05-09 05:45;82,2
2016-05-09 06:00;84,2
2016-05-09 06:15;85,6
2016-05-09 06:30;86
2016-05-09 06:45;82,5
2016-05-09 07:00;77,65
2016-05-09 07:15;81,15
2016-05-09 07:30;79,75
2016-05-09 07:45;84
2016-05-09 08:00;86,5
2016-05-09 08:15;87,25
2016-05-09 08:30;95,35
2016-05-09 08:45;95,85
2016-05-09 09:00;99,25
2016-05-09 09:15;109,15
2016-05-09 09:30;110,75
2016-05-09 09:45;112,65
2016-05-09 10:00;115,85
2016-05-09 10:15;120
2016-05-09 10:30;115,6
2016-05-09 10:45;119,1
2016-05-09 11:00;120,35
2016-05-09 11:15;119,75
2016-05-09 11:30;125,5
2016-05-09 11:45;124,55
2016-05-09 12:00;126,15
2016-05-09 12:15;125,15
2016-05-09 12:30;128,6
2016-05-09 12:45;126,75
2016-05-09 13:00;128,6
2016-05-09 13:15;130,4
2016-05-09 13:30;128,9
2016-05-09 13:45;129,85
2016-05-09 14:00;125,55
2016-05-09 14:15;116,45
2016-05-09 14:30;115,75
2016-05-09 14:45;111,1
2016-05-09 15:00;107,65
2016-05-09 15:15;110,2
2016-05-09 15:30;105,3
2016-05-09 15:45;103,9
2016-05-09 16:00;104,75
2016-05-09 16:15;97,05
2016-05-09 16:30;93,4
2016-05-09 16:45;94,9
2016-05-09 17:00;94,45
2016-05-09 17:15;91,65
2016-05-09 17:30;85,9
2016-05-09 17:45;89,15
2016-05-09 18:00;86,55
2016-05-09 18:15;88,8
2016-05-09 18:30;84,55
2016-05-09 18:45;85,95
2016-05-09 19:00;87,4
2016-05-09 19:15;83,9
2016-05-09 19:30;87,05
2016-05-09 19:45;81,75
2016-05-09 20:00;80,1
2016-05-09 20:15;80,75
2016-05-09 20:30;84,6
2016-05-09 20:45;86
2016-05-09 21:00;83,2
2016-05-09 21:15;90,75
2016-05-09 21:30;89,35
2016-05-09 21:45;88,8
2016-05-09 22:00;88,1
2016-05-09 22:15;78,1
2016-05-09 22:30;76
2016-05-09 22:45;74
2016-05-09 23:00;76,85
2016-05-09 23:15;73,6
2016-05-09 23:30;75,1
2016-05-09 23:45;75,25
2016-05-10 00:00;72,6
2016-05-10 00:15;71,85
2016-05-10 00:30;71,25
2016-05-10 00:45;71,6
2016-05-10 01:00;71,15
2016-05-10 01:15;69,85
2016-05-10 01:30;71,4
2016-05-10 01:45;69,25
2016-05-10 02:00;71,75
2016-05-10 02:15;68,7
2016-05-10 02:30;69,1
2016-05-10 02:45;69,4
2016-05-10 03:00;67,8
2016-05-10 03:15;68,95
2016-05-10 03:30;66,75
2016-05-10 03:45;69,25
2016-05-10 04:00;66,8
2016-05-10 04:15;68,2
2016-05-10 04:30;68,6
2016-05-10 04:45;66,3
2016-05-10 05:00;68,95
2016-05-10 05:15;66,5
2016-05-10 05:30;67,75
2016-05-10 05:45;70,45
2016-05-10 06:00;69,6
2016-05-10 06:15;72,5
2016-05-10 06:30;73,2
2016-05-10 06:45;72,2
2016-05-10 07:00;73,3
2016-05-10 07:15;74,95
2016-05-10 07:30;72
2016-05-10 07:45;77,1
2016-05-10 08:00;76,95
2016-05-10 08:15;74,75
2016-05-10 08:30;77,3
2016-05-10 08:45;75,8
2016-05-10 09:00;84
2016-05-10 09:15;94,65
2016-05-10 09:30;102,4
2016-05-10 09:45;102,5
2016-05-10 10:00;105,5
2016-05-10 10:15;109,75
2016-05-10 10:30;110,85
2016-05-10 10:45;116,5
2016-05-10 11:00;121,4
2016-05-10 11:15;124,05
2016-05-10 11:30;128,05
2016-05-10 11:45;121
2016-05-10 12:00;119,25
2016-05-10 12:15;117,05
2016-05-10 12:30;115,95
2016-05-10 12:45;120,05
2016-05-10 13:00;119,55
2016-05-10 13:15;120,55
2016-05-10 13:30;122,15
2016-05-10 13:45;128
2016-05-10 14:00;122,75
2016-05-10 14:15;125,55
2016-05-10 14:30;119,25
2016-05-10 14:45;118,8
2016-05-10 15:00;111,3
2016-05-10 15:15;110,45
2016-05-10 15:30;102,4
2016-05-10 15:45;101,75
2016-05-10 16:00;101,95
2016-05-10 16:15;101,9
2016-05-10 16:30;98,1
2016-05-10 16:45;98,1
2016-05-10 17:00;99,75
2016-05-10 17:15;95
2016-05-10 17:30;89,85
2016-05-10 17:45;95,05
2016-05-10 18:00;94,5
2016-05-10 18:15;99,25
2016-05-10 18:30;94,5
2016-05-10 18:45;98,4
2016-05-10 19:00;94,85
2016-05-10 19:15;86,8
2016-05-10 19:30;87,8
2016-05-10 19:45;84,4
2016-05-10 20:00;89
2016-05-10 20:15;83,05
2016-05-10 20:30;86,1
2016-05-10 20:45;88,85
2016-05-10 21:00;87,5
2016-05-10 21:15;84,2
2016-05-10 21:30;84,1
2016-05-10 21:45;82,5
2016-05-10 22:00;79,1
2016-05-10 22:15;78,5
2016-05-10 22:30;81,85
2016-05-10 22:45;82,25
2016-05-10 23:00;82,1
2016-05-10 23:15;82,7
2016-05-10 23:30;75,45
2016-05-10 23:45;73,9
2016-05-11 00:00;69,8
2016-05-11 00:15;71,7
2016-05-11 00:30;71,25
2016-05-11 00:45;69,4
2016-05-11 01:00;71,2
2016-05-11 01:15;68,75
2016-05-11 01:30;71
2016-05-11 01:45;69,45
2016-05-11 02:00;71,4
2016-05-11 02:15;71,85
2016-05-11 02:30;70,95
2016-05-11 02:45;70,1
2016-05-11 03:00;68,8
2016-05-11 03:15;70,45
2016-05-11 03:30;69,25
2016-05-11 03:45;69,9
2016-05-11 04:00;68,95
2016-05-11 04:15;69,85
2016-05-11 04:30;69,15
2016-05-11 04:45;67,45
2016-05-11 05:00;69,2
2016-05-11 05:15;67,85
2016-05-11 05:30;68,1
2016-05-11 05:45;70,45
2016-05-11 06:00;71,05
2016-05-11 06:15;75,7
2016-05-11 06:30;74,25
2016-05-11 06:45;71,75
2016-05-11 07:00;72,05
2016-05-11 07:15;69,4
2016-05-11 07:30;74,2
2016-05-11 07:45;80,5
2016-05-11 08:00;81,25
2016-05-11 08:15;79,75
2016-05-11 08:30;89,45
2016-05-11 08:45;91,8
2016-05-11 09:00;94,55
2016-05-11 09:15;105,35
2016-05-11 09:30;110,15
2016-05-11 09:45;104,4
2016-05-11 10:00;106
2016-05-11 10:15;110,6
2016-05-11 10:30;109,95
2016-05-11 10:45;115,25
2016-05-11 11:00;114
2016-05-11 11:15;122,05
2016-05-11 11:30;120,25
2016-05-11 11:45;123,75
2016-05-11 12:00;123,85
2016-05-11 12:15;126,4
2016-05-11 12:30;123,4
2016-05-11 12:45;127,4
2016-05-11 13:00;125,25
2016-05-11 13:15;123,9
2016-05-11 13:30;125,6
2016-05-11 13:45;124,45
2016-05-11 14:00;127,8
2016-05-11 14:15;121,7
2016-05-11 14:30;127,7
2016-05-11 14:45;132,7
2016-05-11 15:00;125,5
2016-05-11 15:15;126,5
2016-05-11 15:30;123,1
2016-05-11 15:45;114,7
2016-05-11 16:00;111,3
2016-05-11 16:15;113,25
2016-05-11 16:30;108,1
2016-05-11 16:45;103,95
2016-05-11 17:00;103,5
2016-05-11 17:15;99,45
2016-05-11 17:30;99,2
2016-05-11 17:45;101,65
2016-05-11 18:00;98,75
2016-05-11 18:15;103,1
2016-05-11 18:30;96,45
2016-05-11 18:45;96,15
2016-05-11 19:00;103
2016-05-11 19:15;97,75
2016-05-11 19:30;97,85
2016-05-11 19:45;96,3
2016-05-11 20:00;95,2
2016-05-11 20:15;98,2
2016-05-11 20:30;100,55
2016-05-11 20:45;94,5
2016-05-11 21:00;89,35
2016-05-11 21:15;90,75
2016-05-11 21:30;96,95
2016-05-11 21:45;94,5
2016-05-11 22:00;90,75
2016-05-11 22:15;86,3
2016-05-11 22:30;84,45
2016-05-11 22:45;77,9
2016-05-11 23:00;77,65
2016-05-11 23:15;75,45
2016-05-11 23:30;73,7
2016-05-11 23:45;79,25
2016-05-12 00:00;71,45
2016-05-12 00:15;74,35
2016-05-12 00:30;70,9
2016-05-12 00:45;74,05
2016-05-12 01:00;72,3
2016-05-12 01:15;73,1
2016-05-12 01:30;72,05
2016-05-12 01:45;71,45
2016-05-12 02:00;72,1
2016-05-12 02:15;71,4
2016-05-12 02:30;73,1
2016-05-12 02:45;69,75
2016-05-12 03:00;71,45
2016-05-12 03:15;69,15
2016-05-12 03:30;70,8
2016-05-12 03:45;69,05
2016-05-12 04:00;71,3
2016-05-12 04:15;71,3
2016-05-12 04:30;70,15
2016-05-12 04:45;67,9
2016-05-12 05:00;71
2016-05-12 05:15;67,7
2016-05-12 05:30;69,75
2016-05-12 05:45;73,4
2016-05-12 06:00;74,65
2016-05-12 06:15;75,35
2016-05-12 06:30;74,15
2016-05-12 06:45;73,95
2016-05-12 07:00;77,95
2016-05-12 07:15;80,3
2016-05-12 07:30;84,7
2016-05-12 07:45;91,35
2016-05-12 08:00;82,8
2016-05-12 08:15;81,45
2016-05-12 08:30;78,25
2016-05-12 08:45;85,85
2016-05-12 09:00;87,15
2016-05-12 09:15;92,15
2016-05-12 09:30;101,2
2016-05-12 09:45;109,2
2016-05-12 10:00;142
2016-05-12 10:15;134,7
2016-05-12 10:30;128,6
2016-05-12 10:45;122,75
2016-05-12 11:00;132,7
2016-05-12 11:15;132,45
2016-05-12 11:30;145,6
2016-05-12 11:45;146,8
2016-05-12 12:00;138,4
2016-05-12 12:15;144,6
2016-05-12 12:30;139,05
2016-05-12 12:45;156,2
2016-05-12 13:00;150,65
2016-05-12 13:15;159,9
2016-05-12 13:30;163,75
2016-05-12 13:45;152,05
2016-05-12 14:00;159,6
2016-05-12 14:15;150,7
2016-05-12 14:30;149
2016-05-12 14:45;146,1
2016-05-12 15:00;156,4
2016-05-12 15:15;147,6
2016-05-12 15:30;138,75
2016-05-12 15:45;148,2
2016-05-12 16:00;133,65
2016-05-12 16:15;139,8
2016-05-12 16:30;130
2016-05-12 16:45;138,05
2016-05-12 17:00;130,45
2016-05-12 17:15;121,25
2016-05-12 17:30;114,35
2016-05-12 17:45;121,25
2016-05-12 18:00;116,95
2016-05-12 18:15;120,3
2016-05-12 18:30;112,3
2016-05-12 18:45;116,25
2016-05-12 19:00;115,85
2016-05-12 19:15;118,8
2016-05-12 19:30;118,2
2016-05-12 19:45;115,5
2016-05-12 20:00;107,05
2016-05-12 20:15;101,55
2016-05-12 20:30;97,25
2016-05-12 20:45;107,65
2016-05-12 21:00;100,65
2016-05-12 21:15;97,7
2016-05-12 21:30;95,3
2016-05-12 21:45;102,75
2016-05-12 22:00;96,95
2016-05-12 22:15;89,8
2016-05-12 22:30;91,35
2016-05-12 22:45;90,05
2016-05-12 23:00;96,75
2016-05-12 23:15;91,6
2016-05-12 23:30;96,95
2016-05-12 23:45;95,7
2016-05-13 00:00;82,15
2016-05-13 00:15;76,6
2016-05-13 00:30;83,05
2016-05-13 00:45;77,6
2016-05-13 01:00;79,9
2016-05-13 01:15;76
2016-05-13 01:30;82,65
2016-05-13 01:45;74,25
2016-05-13 02:00;79,45
2016-05-13 02:15;75,85
2016-05-13 02:30;79,45
2016-05-13 02:45;74,95
2016-05-13 03:00;79,3
2016-05-13 03:15;73,3
2016-05-13 03:30;81,5
2016-05-13 03:45;77
2016-05-13 04:00;74,75
2016-05-13 04:15;75,5
2016-05-13 04:30;79,05
2016-05-13 04:45;75,05
2016-05-13 05:00;73
2016-05-13 05:15;78
2016-05-13 05:30;72,15
2016-05-13 05:45;78,45
2016-05-13 06:00;77,95
2016-05-13 06:15;77,45
2016-05-13 06:30;75,7
2016-05-13 06:45;78,1
2016-05-13 07:00;77,85
2016-05-13 07:15;112,45
2016-05-13 07:30;101,4
2016-05-13 07:45;102
2016-05-13 08:00;95,6
2016-05-13 08:15;95,35
2016-05-13 08:30;96,9
2016-05-13 08:45;101,85
2016-05-13 09:00;103,9
2016-05-13 09:15;101,75
2016-05-13 09:30;119,9
2016-05-13 09:45;134,8
2016-05-13 10:00;120,6
2016-05-13 10:15;133,75
2016-05-13 10:30;129,4
2016-05-13 10:45;143,2
2016-05-13 11:00;136,8
2016-05-13 11:15;145,85
2016-05-13 11:30;138,3
2016-05-13 11:45;151,4
2016-05-13 12:00;145,75
2016-05-13 12:15;148,7
2016-05-13 12:30;160,15
2016-05-13 12:45;145,8
2016-05-13 13:00;162,45
2016-05-13 13:15;155,4
2016-05-13 13:30;160,9
2016-05-13 13:45;160,1
2016-05-13 14:00;149,5
2016-05-13 14:15;152,4
2016-05-13 14:30;143,8
2016-05-13 14:45;154,3
2016-05-13 15:00;138,95
2016-05-13 15:15;150,65
2016-05-13 15:30;140,85
2016-05-13 15:45;138,25
2016-05-13 16:00;130,25
2016-05-13 16:15;127,15
2016-05-13 16:30;123,35
2016-05-13 16:45;119,9
2016-05-13 17:00;116,45
2016-05-13 17:15;105,9
2016-05-13 17:30;106,7
2016-05-13 17:45;107
2016-05-13 18:00;103,55
2016-05-13 18:15;109,55
2016-05-13 18:30;100,7
2016-05-13 18:45;99,6
2016-05-13 19:00;100,8
2016-05-13 19:15;94,1
2016-05-13 19:30;95,25
2016-05-13 19:45;94,15
2016-05-13 20:00;93,8
2016-05-13 20:15;93,5
2016-05-13 20:30;98,9
2016-05-13 20:45;96,35
2016-05-13 21:00;94,3
2016-05-13 21:15;97,9
2016-05-13 21:30;91,75
2016-05-13 21:45;84,85
2016-05-13 22:00;80,8
2016-05-13 22:15;82,3
2016-05-13 22:30;80,05
2016-05-13 22:45;80,8
2016-05-13 23:00;82,15
2016-05-13 23:15;79,25
2016-05-13 23:30;80,8
2016-05-13 23:45;82,4
2016-05-14 00:00;75,95
2016-05-14 00:15;74,05
2016-05-14 00:30;74,6
2016-05-14 00:45;73,2
2016-05-14 01:00;75,05
2016-05-14 01:15;71,25
2016-05-14 01:30;72,75
2016-05-14 01:45;70,15
2016-05-14 02:00;73,25
2016-05-14 02:15;71,8
2016-05-14 02:30;71,35
2016-05-14 02:45;71,7
2016-05-14 03:00;73,25
2016-05-14 03:15;69,7
2016-05-14 03:30;72,95
2016-05-14 03:45;70,95
2016-05-14 04:00;72,35
2016-05-14 04:15;70,3
2016-05-14 04:30;73,75
2016-05-14 04:45;70,5
2016-05-14 05:00;72
2016-05-14 05:15;69,95
2016-05-14 05:30;73,15
2016-05-14 05:45;74,9
2016-05-14 06:00;76,2
2016-05-14 06:15;75,85
2016-05-14 06:30;72,5
2016-05-14 06:45;72,1
2016-05-14 07:00;70,7
2016-05-14 07:15;66,55
2016-05-14 07:30;63,65
2016-05-14 07:45;68,7
2016-05-14 08:00;69,2
2016-05-14 08:15;73,2
2016-05-14 08:30;69,95
2016-05-14 08:45;70,05
2016-05-14 09:00;67,45
2016-05-14 09:15;75,75
2016-05-14 09:30;73,2
2016-05-14 09:45;74,7
2016-05-14 10:00;74,8
2016-05-14 10:15;78,6
2016-05-14 10:30;73,95
2016-05-14 10:45;73,55
2016-05-14 11:00;74,9
2016-05-14 11:15;73,55
2016-05-14 11:30;74
2016-05-14 11:45;73,7
2016-05-14 12:00;73,3
2016-05-14 12:15;72,25
2016-05-14 12:30;73,85
2016-05-14 12:45;73,45
2016-05-14 13:00;74,2
2016-05-14 13:15;72
2016-05-14 13:30;73,8
2016-05-14 13:45;76,5
2016-05-14 14:00;76,15
2016-05-14 14:15;81,95
2016-05-14 14:30;80,7
2016-05-14 14:45;79,15
2016-05-14 15:00;86,8
2016-05-14 15:15;79,45
2016-05-14 15:30;76,55
2016-05-14 15:45;79,1
2016-05-14 16:00;77,55
2016-05-14 16:15;72,85
2016-05-14 16:30;78,95
2016-05-14 16:45;82,1
2016-05-14 17:00;80,75
2016-05-14 17:15;74,35
2016-05-14 17:30;75,05
2016-05-14 17:45;76,15
2016-05-14 18:00;75,5
2016-05-14 18:15;80,85
2016-05-14 18:30;76,9
2016-05-14 18:45;76,9
2016-05-14 19:00;82,45
2016-05-14 19:15;80,3
2016-05-14 19:30;77,7
2016-05-14 19:45;78,2
2016-05-14 20:00;78,45
2016-05-14 20:15;82,15
2016-05-14 20:30;83,3
2016-05-14 20:45;92,55
2016-05-14 21:00;90,8
2016-05-14 21:15;91,3
2016-05-14 21:30;90,55
2016-05-14 21:45;81,4
2016-05-14 22:00;78,5
2016-05-14 22:15;80,3
2016-05-14 22:30;78,5
2016-05-14 22:45;80,05
2016-05-14 23:00;80,65
2016-05-14 23:15;80,15
2016-05-14 23:30;77,85
2016-05-14 23:45;82,95
2016-05-15 00:00;74,3
2016-05-15 00:15;72,75
2016-05-15 00:30;72,45
2016-05-15 00:45;71,8
2016-05-15 01:00;73,15
2016-05-15 01:15;69,65
2016-05-15 01:30;71,45
2016-05-15 01:45;69,9
2016-05-15 02:00;72,3
2016-05-15 02:15;71,7
2016-05-15 02:30;72,1
2016-05-15 02:45;69,05
2016-05-15 03:00;70,8
2016-05-15 03:15;69
2016-05-15 03:30;71,2
2016-05-15 03:45;68,45
2016-05-15 04:00;70,95
2016-05-15 04:15;70,25
2016-05-15 04:30;69,45
2016-05-15 04:45;70,55
2016-05-15 05:00;69,35
2016-05-15 05:15;70,05
2016-05-15 05:30;68,4
2016-05-15 05:45;74,8
2016-05-15 06:00;73
2016-05-15 06:15;76,9
2016-05-15 06:30;77,6
2016-05-15 06:45;76
2016-05-15 07:00;76,8
2016-05-15 07:15;75,85
2016-05-15 07:30;73,4
2016-05-15 07:45;73,7
2016-05-15 08:00;76,05
2016-05-15 08:15;80,6
2016-05-15 08:30;80,95
2016-05-15 08:45;79,65
2016-05-15 09:00;73,35
2016-05-15 09:15;72,85
2016-05-15 09:30;68,1
2016-05-15 09:45;68,35
2016-05-15 10:00;66,25
2016-05-15 10:15;67,95
2016-05-15 10:30;68,4
2016-05-15 10:45;70,25
2016-05-15 11:00;71,5
2016-05-15 11:15;72,95
2016-05-15 11:30;76,65
2016-05-15 11:45;75,5
2016-05-15 12:00;72,1
2016-05-15 12:15;70,5
2016-05-15 12:30;71,1
2016-05-15 12:45;75
2016-05-15 13:00;73,4
2016-05-15 13:15;75
2016-05-15 13:30;74,35
2016-05-15 13:45;75,05
2016-05-15 14:00;84,6
2016-05-15 14:15;85
2016-05-15 14:30;87,35
2016-05-15 14:45;79,65
2016-05-15 15:00;75,1
2016-05-15 15:15;74,1
2016-05-15 15:30;72,9
2016-05-15 15:45;71,6
2016-05-15 16:00;71,2
2016-05-15 16:15;74,5
2016-05-15 16:30;77,55
2016-05-15 16:45;75,3
2016-05-15 17:00;76
2016-05-15 17:15;73,8
2016-05-15 17:30;74,15
2016-05-15 17:45;77,55
2016-05-15 18:00;76,3
2016-05-15 18:15;81,1
2016-05-15 18:30;80
2016-05-15 18:45;81,8
2016-05-15 19:00;83,9
2016-05-15 19:15;87,75
2016-05-15 19:30;85,25
2016-05-15 19:45;86,6
2016-05-15 20:00;86,75
2016-05-15 20:15;80,2
2016-05-15 20:30;81
2016-05-15 20:45;85,4
2016-05-15 21:00;85,05
2016-05-15 21:15;89,25
2016-05-15 21:30;87,3
2016-05-15 21:45;82,85
2016-05-15 22:00;77,95
2016-05-15 22:15;80,4
2016-05-15 22:30;78,65
2016-05-15 22:45;81,1
2016-05-15 23:00;76,45
2016-05-15 23:15;76,95
2016-05-15 23:30;76,9
2016-05-15 23:45;79,3

